Home   Weather   Kodiak   Past weeks

Flag for USA Past Weather in Kodiak, Alaska, USA — Yesterday and Last 2 Weeks

Now
48 °F

Passing clouds.


Feels Like: 47 °F
Forecast: 44 / 51 °F
Wind: 3 mph from Northwest

Location: Kodiak Weather Reporting Station

Current Time: Sep 24, 2016 at 7:48:42 PM

Latest Report: Sep 24, 2016 at 6:53 PM


Visibility: 10 mi

Pressure: 29.76 "Hg

Humidity: 96%

Dew Point: 47 °F

Location of KodiakLocation

Past Weather in Kodiak — Graph

°F

Kodiak Temperature Yesterday

Maximum temperature yesterday: 59 °F (at 2:53 PM)
Minimum temperature yesterday: 36 °F (at 6:53 AM)
Average temperature yesterday: 47 °F

High & Low Weather Summary for the Past Weeks

 TemperatureHumidityPressure
High65 °F (Sep 10, 11:53 AM)100% (Sep 11, 5:53 AM)30.19 "Hg (Sep 11, 5:53 AM)
Low36 °F (Sep 23, 6:53 AM)37% (Sep 9, 6:53 PM)29.06 "Hg (Sep 22, 4:53 AM)
Average53 °F79%29.65 "Hg
* Reported Sep 9 6:53 PM — Sep 24 6:53 PM, Kodiak, Weather by CustomWeather, © 2016

Note: Actual official high and low records may vary slightly from our data, if they occured in-between our weather recording intervals... More about our weather records

Advertising

Kodiak Weather History for the Previous 24 Hours

Scroll right to see more
 ConditionsComfort  
Time TempWeatherWind HumidityBarometerVisibility
6:53 PM
Sat, Sep 24
48 °FPassing clouds.3 mph96%29.76 "Hg10 mi
5:53 PM50 °FSunny.No wind80%29.76 "Hg10 mi
4:53 PM51 °FLight rain. Partly sunny.5 mph80%29.75 "Hg10 mi
3:53 PM50 °FLight rain. Fog.6 mph89%29.75 "Hg6 mi
2:53 PM52 °FLight rain. Mostly cloudy.5 mph77%29.74 "Hg4 mi
1:53 PM53 °FPartly sunny.6 mph72%29.73 "Hg10 mi
12:53 PM55 °FScattered clouds.6 mph57%29.72 "Hg10 mi
11:53 AM52 °FScattered clouds.5 mph69%29.72 "Hg10 mi
10:53 AM51 °FPartly sunny.No wind71%29.70 "Hg10 mi
9:53 AM44 °FPartly sunny.6 mph89%29.70 "Hg10 mi
8:53 AM39 °FPartly sunny.6 mph96%29.68 "Hg10 mi
7:53 AM36 °FPassing clouds.6 mph100%29.67 "Hg10 mi
6:53 AM36 °FPassing clouds.6 mph97%29.66 "Hg10 mi
5:53 AM36 °FPassing clouds.6 mph100%29.65 "Hg10 mi
4:53 AM37 °FPassing clouds.7 mph96%29.64 "Hg10 mi
3:53 AM37 °FPassing clouds.7 mph100%29.63 "Hg10 mi
2:53 AM39 °FPassing clouds.7 mph96%29.62 "Hg10 mi
1:53 AM39 °FPassing clouds.7 mph96%29.62 "Hg10 mi
12:53 AM40 °FClear.6 mph97%29.61 "Hg10 mi
11:53 PM
Fri, Sep 23
42 °FPassing clouds.7 mph89%29.60 "Hg10 mi
10:53 PM43 °FPassing clouds.6 mph89%29.58 "Hg10 mi
9:53 PM43 °FClear.7 mph89%29.56 "Hg10 mi
8:53 PM46 °FPassing clouds.6 mph83%29.55 "Hg10 mi
7:53 PM51 °FSunny.6 mph63%29.53 "Hg10 mi
Weather by CustomWeather, © 2016

See weather overviewHow to use our weather pages